When you browse on this site, cookies collect data to enhance your experience and personalize the content and advertising you see.
Visit our Privacy Policy to learn more. By continuing to use the site, you agree to this use of cookies and data.
  • In Hungary
  • List of Countries
  • For 7 days
  • Water Temperature
  • Satellite Maps
  • Weather Map
  • News
  • Weather Widgets
  • user-avatar
    Login

    Hourly Weather Skala

    Today, 19 December, Wednesday

    Time Temperature Precipitation Wind Pressure Humidity
    00:00 -2°C° 0 mm 3 mps 753 mmHg 90%
    01:00 -2°C° 0 mm 3 mps 753 mmHg 89%
    02:00 -2°C° 0 mm 3 mps 752 mmHg 88%
    03:00 -3°C° 0 mm 4 mps 752 mmHg 88%
    04:00 -3°C° 0 mm 4 mps 752 mmHg 87%
    05:00 -3°C° 0 mm 4 mps 752 mmHg 87%
    06:00 -4°C° 0 mm 4 mps 752 mmHg 88%
    07:00 -4°C° 0 mm 4 mps 751 mmHg 89%
    08:00 -3°C° 0 mm 4 mps 751 mmHg 87%
    09:00 -4°C° 0 mm 5 mps 751 mmHg 84%
    10:00 -2°C° 0 mm 5 mps 751 mmHg 81%
    11:00 -1°C° 0 mm 5 mps 750 mmHg 79%
    12:00 -1°C° 0 mm 5 mps 750 mmHg 76%
    13:00 0°C° 0 mm 5 mps 750 mmHg 74%
    14:00 -1°C° 0 mm 5 mps 749 mmHg 75%
    15:00 -1°C° 0 mm 4 mps 749 mmHg 77%
    16:00 -2°C° 0 mm 4 mps 749 mmHg 78%
    17:00 -2°C° 0 mm 4 mps 749 mmHg 78%
    18:00 -2°C° 0 mm 4 mps 749 mmHg 78%
    19:00 -2°C° 0 mm 4 mps 748 mmHg 78%
    20:00 -2°C° 0 mm 4 mps 748 mmHg 78%
    21:00 -2°C° 0 mm 4 mps 748 mmHg 77%
    22:00 -2°C° 0 mm 4 mps 748 mmHg 77%
    23:00 -2°C° 0.1 mm 4 mps 748 mmHg 77%

    Tomorrow, 20 December, Thursday

    Time Temperature Precipitation Wind Pressure Humidity
    00:00 -2°C° 0.1 mm 4 mps 748 mmHg 78%
    01:00 -1°C° 0.1 mm 3 mps 748 mmHg 78%
    02:00 -1°C° 0.1 mm 3 mps 748 mmHg 78%
    03:00 -1°C° 0.1 mm 3 mps 747 mmHg 78%
    04:00 -1°C° 0.1 mm 3 mps 747 mmHg 78%
    05:00 -1°C° 0.1 mm 3 mps 747 mmHg 78%
    06:00 -2°C° 0.1 mm 3 mps 747 mmHg 78%
    07:00 -2°C° 0.1 mm 3 mps 747 mmHg 79%
    08:00 -2°C° 0 mm 3 mps 747 mmHg 78%
    09:00 -3°C° 0 mm 4 mps 747 mmHg 78%
    10:00 -3°C° 0 mm 4 mps 747 mmHg 77%
    11:00 -1°C° 0 mm 3 mps 747 mmHg 77%
    12:00 -1°C° 0 mm 3 mps 747 mmHg 78%
    13:00 0°C° 0 mm 3 mps 747 mmHg 78%
    14:00 0°C° 0.1 mm 3 mps 747 mmHg 80%
    15:00 -1°C° 0.1 mm 3 mps 747 mmHg 83%
    16:00 -1°C° 0.1 mm 3 mps 747 mmHg 85%
    17:00 0°C° 0.1 mm 3 mps 747 mmHg 86%
    18:00 0°C° 0.1 mm 3 mps 747 mmHg 87%
    19:00 0°C° 0.1 mm 3 mps 747 mmHg 88%
    20:00 0°C° 0.1 mm 3 mps 747 mmHg 88%
    21:00 0°C° 0.1 mm 3 mps 747 mmHg 89%
    22:00 0°C° 0.1 mm 3 mps 747 mmHg 89%
    23:00 0°C° 0 mm 3 mps 747 mmHg 89%

    Day after tomorrow, 21 December, Friday

    Time Temperature Precipitation Wind Pressure Humidity
    00:00 0°C° 0 mm 3 mps 747 mmHg 89%
    01:00 0°C° 0 mm 3 mps 747 mmHg 89%
    02:00 -1°C° 0 mm 4 mps 747 mmHg 89%
    03:00 -1°C° 0 mm 4 mps 747 mmHg 89%
    04:00 -1°C° 0 mm 4 mps 746 mmHg 89%
    05:00 0°C° 0.1 mm 4 mps 746 mmHg 89%
    06:00 0°C° 0.1 mm 4 mps 746 mmHg 88%
    07:00 0°C° 0.1 mm 4 mps 746 mmHg 88%
    08:00 0°C° 0.1 mm 4 mps 745 mmHg 87%
    09:00 +1°C° 0.1 mm 5 mps 745 mmHg 86%
    10:00 +1°C° 0.1 mm 5 mps 745 mmHg 86%
    11:00 +1°C° 0.1 mm 5 mps 744 mmHg 85%
    12:00 +1°C° 0.1 mm 5 mps 743 mmHg 85%
    13:00 +2°C° 0.1 mm 5 mps 742 mmHg 84%
    14:00 +1°C° 0.3 mm 5 mps 742 mmHg 85%
    15:00 +1°C° 0.3 mm 5 mps 741 mmHg 85%
    16:00 +1°C° 0.3 mm 5 mps 740 mmHg 85%
    17:00 +1°C° 0.7 mm 5 mps 740 mmHg 86%
    18:00 +1°C° 0.7 mm 5 mps 739 mmHg 86%
    19:00 +1°C° 0.7 mm 6 mps 738 mmHg 86%
    20:00 +2°C° 0.9 mm 6 mps 737 mmHg 86%
    21:00 +3°C° 0.9 mm 6 mps 737 mmHg 87%
    22:00 +3°C° 0.9 mm 6 mps 736 mmHg 87%
    23:00 +4°C° 0.1 mm 6 mps 736 mmHg 86%

    22 December, Saturday

    Time Temperature Precipitation Wind Pressure Humidity
    00:00 +4°C° 0.1 mm 6 mps 736 mmHg 85%
    01:00 +5°C° 0.1 mm 7 mps 736 mmHg 84%
    02:00 +5°C° 0 mm 6 mps 736 mmHg 83%
    03:00 +4°C° 0 mm 6 mps 736 mmHg 82%
    04:00 +4°C° 0 mm 6 mps 736 mmHg 81%
    05:00 +3°C° 0 mm 6 mps 737 mmHg 81%
    06:00 +3°C° 0 mm 6 mps 737 mmHg 82%
    07:00 +3°C° 0 mm 6 mps 737 mmHg 82%
    08:00 +4°C° 0 mm 6 mps 737 mmHg 82%
    09:00 +4°C° 0 mm 6 mps 737 mmHg 82%
    10:00 +4°C° 0 mm 6 mps 737 mmHg 82%
    11:00 +5°C° 0.1 mm 6 mps 737 mmHg 81%
    12:00 +5°C° 0.1 mm 6 mps 737 mmHg 81%
    13:00 +5°C° 0.1 mm 6 mps 737 mmHg 81%
    14:00 +5°C° 0.5 mm 6 mps 737 mmHg 80%
    15:00 +5°C° 0.5 mm 6 mps 737 mmHg 79%
    16:00 +5°C° 0.5 mm 7 mps 737 mmHg 78%
    17:00 +5°C° 0.2 mm 7 mps 737 mmHg 79%
    18:00 +5°C° 0.2 mm 8 mps 737 mmHg 80%
    19:00 +5°C° 0.2 mm 8 mps 738 mmHg 80%
    20:00 +5°C° 0.1 mm 9 mps 738 mmHg 78%
    21:00 +5°C° 0.1 mm 9 mps 739 mmHg 76%
    22:00 +3°C° 0.1 mm 10 mps 740 mmHg 74%
    23:00 +3°C° 0 mm 9 mps 741 mmHg 75%

    23 December, Sunday

    Time Temperature Precipitation Wind Pressure Humidity
    00:00 +2°C° 0 mm 9 mps 742 mmHg 76%
    01:00 +2°C° 0 mm 8 mps 743 mmHg 77%
    02:00 +2°C° 0 mm 7 mps 743 mmHg 81%
    03:00 +2°C° 0 mm 6 mps 744 mmHg 84%
    04:00 +3°C° 0 mm 4 mps 745 mmHg 87%
    05:00 +3°C° 0.2 mm 4 mps 745 mmHg 89%
    06:00 +3°C° 0.2 mm 3 mps 745 mmHg 90%
    07:00 +3°C° 0.2 mm 2 mps 746 mmHg 92%
    08:00 +4°C° 0.3 mm 2 mps 746 mmHg 91%
    09:00 +4°C° 0.3 mm 2 mps 746 mmHg 91%
    10:00 +4°C° 0.3 mm 2 mps 747 mmHg 90%
    11:00 +3°C° 0.4 mm 3 mps 747 mmHg 88%
    12:00 +4°C° 0.4 mm 3 mps 747 mmHg 87%
    13:00 +4°C° 0.4 mm 4 mps 747 mmHg 85%
    14:00 +4°C° 0.2 mm 4 mps 747 mmHg 85%
    15:00 +4°C° 0.2 mm 4 mps 747 mmHg 85%
    16:00 +3°C° 0.2 mm 4 mps 747 mmHg 85%
    17:00 +3°C° 0 mm 4 mps 747 mmHg 85%
    18:00 +3°C° 0 mm 4 mps 747 mmHg 85%
    19:00 +3°C° 0 mm 4 mps 747 mmHg 84%
    20:00 +3°C° 0 mm 4 mps 748 mmHg 85%
    21:00 +3°C° 0 mm 4 mps 748 mmHg 86%
    22:00 +3°C° 0 mm 4 mps 748 mmHg 86%
    23:00 +3°C° 0 mm 4 mps 748 mmHg 86%

    24 December, Monday

    Time Temperature Precipitation Wind Pressure Humidity
    00:00 +3°C° 0 mm 4 mps 748 mmHg 86%
    01:00 +2°C° 0 mm 5 mps 748 mmHg 86%
    02:00 +2°C° 0.1 mm 5 mps 747 mmHg 86%
    03:00 +1°C° 0.1 mm 5 mps 747 mmHg 86%
    04:00 +1°C° 0.1 mm 6 mps 747 mmHg 86%
    05:00 +2°C° 0.4 mm 6 mps 747 mmHg 85%
    06:00 +2°C° 0.4 mm 6 mps 747 mmHg 84%
    07:00 +2°C° 0.4 mm 7 mps 747 mmHg 84%
    08:00 +2°C° 0.1 mm 7 mps 748 mmHg 82%
    09:00 +2°C° 0.1 mm 7 mps 748 mmHg 81%
    10:00 +2°C° 0.1 mm 6 mps 749 mmHg 79%
    11:00 +2°C° 0 mm 6 mps 749 mmHg 78%
    12:00 +2°C° 0 mm 6 mps 750 mmHg 76%
    13:00 +2°C° 0 mm 6 mps 751 mmHg 74%
    14:00 +2°C° 0 mm 5 mps 751 mmHg 76%
    15:00 +3°C° 0 mm 4 mps 752 mmHg 78%
    16:00 +1°C° 0 mm 4 mps 752 mmHg 80%
    17:00 +2°C° 0 mm 3 mps 752 mmHg 81%
    18:00 +2°C° 0 mm 3 mps 753 mmHg 83%
    19:00 +2°C° 0 mm 3 mps 753 mmHg 85%
    20:00 +2°C° 0.1 mm 3 mps 753 mmHg 85%
    21:00 +2°C° 0.1 mm 3 mps 754 mmHg 86%
    22:00 +2°C° 0.1 mm 3 mps 754 mmHg 86%
    23:00 +2°C° 0.1 mm 3 mps 754 mmHg 86%
    Show more